GW0664 Weather Reports


Display with metric or nautical units.
time (UTC)temp
F
wind
direction
speed
MPH
gust
MPH
rain 1hr
in
rain 24hr
in
rain mn
in
humidity
%
barometer
mb
20260503004545 65 161 2.0 8.0 0.00 0.00 0.00 34 1015.3
20260503003105 65 345 7.0 13.0 0.00 0.00 0.00 36 1015.4
20260503001545 65 345 7.0 13.0 0.00 0.00 0.00 35 1015.5
20260503000056 66 91 9.0 14.0 0.00 0.00 0.00 33 1015.8
20260502234543 65 345 4.0 8.0 0.00 0.00 0.00 34 1015.8
20260502233047 65 96 6.0 9.0 0.00 0.00 0.00 35 1015.9
20260502231545 65 345 4.0 7.0 0.00 0.00 0.00 34 1016.0
20260502230041 65 96 5.0 10.0 0.00 0.00 0.00 34 1016.0
20260502224538 65 345 5.0 9.0 0.00 0.00 0.00 34 1016.2
20260502223037 66 97 2.0 11.0 0.00 0.00 0.00 33 1016.5
20260502221541 67 345 10.0 12.0 0.00 0.00 0.00 32 1016.8
20260502220040 67 345 4.0 10.0 0.00 0.00 0.00 33 1016.8
20260502214538 66 345 8.0 12.0 0.00 0.00 0.00 34 1017.0
20260502213037 66 345 6.0 13.0 0.00 0.00 0.00 33 1017.2
20260502211550 66 207 3.0 8.0 0.00 0.00 0.00 34 1017.5
20260502210040 64 0 2.0 8.0 0.00 0.00 0.00 35 1017.9
20260502204538 65 345 7.0 12.0 0.00 0.00 0.00 35 1018.0
20260502203038 67 0 1.0 8.0 0.00 0.00 0.00 34 1018.1
20260502201545 64 0 1.0 5.0 0.00 0.00 0.00 36 1018.2
20260502200046 63 345 5.0 11.0 0.00 0.00 0.00 38 1018.2
20260502194538 64 345 4.0 10.0 0.00 0.00 0.00 36 1018.3
20260502193039 64 345 3.0 12.0 0.00 0.00 0.00 37 1018.4
20260502191538 65 345 1.0 8.0 0.00 0.00 0.00 37 1018.7
20260502190045 62 172 4.0 8.0 0.00 0.00 0.00 39 1019.1
20260502184548 61 0 4.0 11.0 0.00 0.00 0.00 41 1019.3
20260502183049 61 345 1.0 9.0 0.00 0.00 0.00 40 1019.4
20260502181544 62 345 7.0 13.0 0.00 0.00 0.00 40 1019.4
20260502163047 58 345 4.0 13.0 0.00 0.00 0.00 46 1020.1
20260502161539 58 345 5.0 13.0 0.00 0.00 0.00 46 1020.2
20260502151547 53 345 8.0 12.0 0.00 0.00 0.00 55 1020.2
20260502123048 46 345 15.0 20.0 0.00 0.00 0.00 63 1018.9
20260502121546 46 345 16.0 20.0 0.00 0.00 0.00 62 1018.8
20260502114545 46 345 16.0 20.0 0.00 0.00 0.00 61 1018.5
20260502113042 46 345 14.0 20.0 0.00 0.00 0.00 60 1018.2
20260502111547 46 85 15.0 19.0 0.00 0.00 0.00 59 1018.1
20260502110051 47 345 14.0 18.0 0.00 0.00 0.00 58 1017.6
20260502104538 48 26 10.0 13.0 0.00 0.00 0.00 57 1017.6
20260502103048 48 345 11.0 17.0 0.00 0.00 0.00 57 1017.3
20260502101547 48 345 12.0 16.0 0.00 0.00 0.00 55 1016.6
20260502070050 49 345 5.0 8.0 0.00 0.00 0.00 45 1015.7
20260502064546 49 345 4.0 8.0 0.00 0.00 0.00 44 1015.7
20260502063101 51 345 4.0 5.0 0.00 0.00 0.00 41 1015.7
20260502061550 53 345 5.0 6.0 0.00 0.00 0.00 40 1015.6
20260502060041 54 345 4.0 8.0 0.00 0.00 0.00 39 1015.6
20260502054548 54 345 5.0 8.0 0.00 0.00 0.00 38 1015.6
20260502053055 53 345 4.0 8.0 0.00 0.00 0.00 39 1015.6
20260502051548 51 345 6.0 12.0 0.00 0.00 0.00 41 1015.6
20260502050048 54 345 4.0 6.0 0.00 0.00 0.00 36 1015.4
20260502044548 55 345 6.0 10.0 0.00 0.00 0.00 36 1015.4
20260502043054 56 345 5.0 6.0 0.00 0.00 0.00 34 1015.2
20260502041554 58 345 7.0 10.0 0.00 0.00 0.00 33 1015.1
20260502040053 57 345 2.0 6.0 0.00 0.00 0.00 32 1015.1
20260502034549 59 345 5.0 11.0 0.00 0.00 0.00 31 1015.1
20260502033043 60 345 10.0 13.0 0.00 0.00 0.00 29 1015.1
20260502031539 60 345 10.0 13.0 0.00 0.00 0.00 28 1015.0
20260502030050 62 345 8.0 14.0 0.00 0.00 0.00 26 1014.9
20260502024546 64 345 12.0 16.0 0.00 0.00 0.00 25 1014.8
20260502023045 66 345 12.0 16.0 0.00 0.00 0.00 23 1014.6
20260502021543 68 345 11.0 18.0 0.00 0.00 0.00 21 1014.5
20260502020042 69 345 14.0 19.0 0.00 0.00 0.00 20 1014.6
20260502014539 70 345 14.0 20.0 0.00 0.00 0.00 18 1014.5
20260502013038 71 345 16.0 21.0 0.00 0.00 0.00 17 1014.4
20260502011545 71 345 15.0 20.0 0.00 0.00 0.00 17 1014.4
20260502010046 72 345 17.0 22.0 0.00 0.00 0.00 15 1014.4